User: anonymous   Login
Location: Taupo
(38.6830°S, 176.0830°E)
Time: 23:48:50
(UTC+12:00)
Language:

Resurs 01 Rocket - Orbit

View from above orbital plane
View from above orbital plane
View from above satellite
View from above satellite

Ground track
Ground track

The orbit data is extracted from the following two-line orbital elements,

1 23343U 94074B   19144.17370897  .00000009  00000-0  87183-5 0  9991
2 23343  98.0543 194.2427 0006214 337.5557  77.4502 14.76778113321021
Epoch (UTC): 24 May 2019 04:10:08
Eccentricity: 0.0006214
inclination: 98.0543°
perigee height: 635 km
apogee height: 644 km
right ascension of ascending node: 194.2427°
argument of perigee: 337.5557°
revolutions per day: 14.76778113
mean anomaly at epoch: 77.4502°
orbit number at epoch: 32102

The dashed part of the orbit path shows where the satellite is in the earth's shadow,  

DLR